EW2167 Weather Reports


time (UTC)temp
C
wind
direction
speed
KPH
gust
KPH
rain 1hr
cm
rain 24hr
cm
rain mn
cm
humidity
%
barometer
mb
20260503224531 15 213 9.7 24.1 0.00 0.00 0.00 44 1013.7
20260503223032 15 207 9.7 22.5 0.00 0.00 0.00 44 1014.0
20260503221533 15 218 9.7 20.9 0.00 0.00 0.00 42 1014.0
20260503220032 16 217 14.5 27.4 0.00 0.00 0.00 42 1014.4
20260503214532 16 209 11.3 33.8 0.00 0.00 0.00 44 1014.6
20260503213032 16 234 8.0 27.4 0.00 0.00 0.00 44 1014.8
20260503211531 16 210 14.5 29.0 0.00 0.00 0.00 42 1014.9
20260503210033 16 217 12.9 33.8 0.00 0.00 0.00 41 1015.0
20260503204531 16 237 11.3 30.6 0.00 0.00 0.00 42 1015.3
20260503203036 16 256 12.9 32.2 0.00 0.00 0.00 40 1015.5
20260503201532 16 227 8.0 35.4 0.00 0.00 0.00 42 1015.4
20260503200030 17 238 12.9 25.7 0.00 0.00 0.00 39 1015.5
20260503194532 16 215 8.0 33.8 0.00 0.00 0.00 39 1015.8
20260503193030 15 238 9.7 24.1 0.00 0.00 0.00 43 1016.0
20260503191532 15 221 6.4 25.7 0.00 0.00 0.00 41 1016.6
20260503190033 15 222 11.3 27.4 0.00 0.00 0.00 41 1016.8
20260503184536 16 217 12.9 32.2 0.00 0.00 0.00 42 1017.1
20260503183031 15 229 12.9 29.0 0.00 0.00 0.00 41 1017.3
20260503181531 16 226 4.8 20.9 0.00 0.00 0.00 40 1017.4
20260503180035 15 217 8.0 27.4 0.00 0.00 0.00 41 1017.6
20260503174533 15 197 8.0 27.4 0.00 0.00 0.00 43 1017.7
20260503173035 15 209 8.0 27.4 0.00 0.00 0.00 40 1017.9
20260503171545 15 190 16.1 29.0 0.00 0.00 0.00 40 1018.2
20260503081534 0 30 0.0 3.2 0.00 0.00 0.00 87 1018.5
20260503071552 1 30 0.0 0.0 0.00 0.00 0.00 84 1018.4
20260503054539 1 0 0.0 3.2 0.00 0.00 0.00 85 1018.9
20260503053037 1 0 0.0 3.2 0.00 0.00 0.00 85 1018.9
20260503051532 2 0 0.0 1.6 0.00 0.00 0.00 81 1018.8
20260503050030 1 0 0.0 0.0 0.00 0.00 0.00 84 1018.9
20260503044544 1 0 0.0 0.0 0.00 0.00 0.00 83 1018.9
20260503043042 2 0 0.0 0.0 0.00 0.00 0.00 81 1018.9
20260503041532 2 0 0.0 0.0 0.00 0.00 0.00 85 1018.9
20260503040038 2 0 0.0 0.0 0.00 0.00 0.00 83 1019.1
20260503034530 3 0 0.0 0.0 0.00 0.00 0.00 79 1019.0
20260503033029 2 0 0.0 0.0 0.00 0.00 0.00 81 1019.1
20260503031532 2 0 0.0 0.0 0.00 0.00 0.00 81 1019.2
20260503030029 3 0 0.0 0.0 0.00 0.00 0.00 80 1019.1
20260503024531 3 0 0.0 0.0 0.00 0.00 0.00 77 1019.1
20260503023031 3 0 0.0 0.0 0.00 0.00 0.00 77 1019.1
20260503021530 4 0 0.0 0.0 0.00 0.00 0.00 74 1019.0
20260503020034 4 0 0.0 0.0 0.00 0.00 0.00 74 1018.7
20260503014532 4 0 0.0 0.0 0.00 0.00 0.00 72 1018.5
20260503013029 5 0 0.0 1.6 0.00 0.00 0.00 68 1018.5
20260503011532 5 0 0.0 3.2 0.00 0.00 0.00 67 1018.2
20260503010035 7 30 1.6 8.0 0.00 0.00 0.00 57 1018.2
20260503004532 8 30 1.6 16.1 0.00 0.00 0.00 54 1018.1
20260503003029 8 28 3.2 9.7 0.00 0.00 0.00 53 1017.8
20260503001529 8 26 4.8 14.5 0.00 0.00 0.00 51 1017.7
20260503000043 9 20 4.8 17.7 0.00 0.00 0.00 49 1017.6
20260502234531 10 5 3.2 11.3 0.00 0.00 0.00 49 1017.5
20260502233033 10 0 1.6 17.7 0.00 0.00 0.00 50 1017.5
20260502231534 10 13 4.8 11.3 0.00 0.00 0.00 46 1017.4
20260502230032 10 336 4.8 19.3 0.00 0.00 0.00 46 1017.4